Blackwell, OK

8:53 AM CDT on September 19, 2017 (GMT -0500)
Blackwell

Weather History for KBKN - May, 2014

Change the Weather History Date:

Wednesday, May 7, 2014

  Actual Average (KPNC) Record (KPNC)
Temperature  
Mean Temperature 80 °F -  
Max Temperature 93 °F 79 °F 93 °F (2000)
Min Temperature 68 °F 52 °F 39 °F (1960)
Cooling Degree Days 16    
Growing Degree Days 30 (Base 50)    
Moisture  
Dew Point 61 °F    
Average Humidity 59    
Maximum Humidity 83    
Minimum Humidity 30    
Precipitation  
Precipitation 0.00 in - - ()
Sea Level Pressure  
Sea Level Pressure 29.63 in    
Wind  
Wind Speed 17 mph (SSE)    
Max Wind Speed 28 mph    
Max Gust Speed 38 mph    
Visibility 10 miles    
Events Rain    
Averages and records for this station are not official NWS values.
T = Trace of Precipitation, MM = Missing Value Source: NWS Daily Summary

Daily Weather History Graph

Daily Weather History Graph

Search for Another Location

Airport or City:

Trip Planner

Search our weather history database for the weather conditions in past years. The results will help you decide how hot, cold, wet, or windy it might be!

Date:

Astronomy

May. 07, 2014 Rise Set
Actual Time 6:29 AM CDT 8:23 PM CDT
Civil Twilight 6:00 AM CDT 8:51 PM CDT
Nautical Twilight 5:26 AM CDT 9:25 PM CDT
Astronomical Twilight 4:50 AM CDT 10:02 PM CDT
Moon 1:40 PM CDT (5/7) 2:17 AM CDT (5/7)
Length of Visible Light 14h 50m
Length of Day
13h 54m
First Quarter, 55% of the Moon is Illuminated
May 7
First Quarter
May 14
Full
May 21
Last Quarter
May 28
New
Jun 5
First Quarter

Hourly Weather History & Observations

Time (CDT) Temp. Heat Index Dew Point Humidity Pressure Visibility Wind Dir Wind Speed Gust Speed Precip Events Conditions
12:15 AM 75.2 °F - 62.6 °F 65% 29.59 in 10.0 mi SSE 15.0 mph 25.3 mph N/A   Clear
12:35 AM 75.2 °F - 62.6 °F 65% 29.60 in 10.0 mi SSE 13.8 mph 20.7 mph N/A   Partly Cloudy
12:55 AM 73.4 °F - 62.6 °F 69% 29.59 in 10.0 mi SSE 15.0 mph 21.9 mph N/A   Clear
1:15 AM 73.4 °F - 62.6 °F 69% 29.59 in 10.0 mi SSE 17.3 mph 21.9 mph N/A   Partly Cloudy
1:35 AM 73.4 °F - 62.6 °F 69% 29.59 in 10.0 mi SSE 18.4 mph - N/A   Partly Cloudy
1:55 AM 73.4 °F - 62.6 °F 69% 29.59 in 10.0 mi SSE 16.1 mph 21.9 mph N/A   Mostly Cloudy
2:15 AM 73.4 °F - 62.6 °F 69% 29.59 in 10.0 mi SSE 13.8 mph 18.4 mph N/A   Scattered Clouds
2:35 AM 71.6 °F - 62.6 °F 73% 29.59 in 10.0 mi SSE 13.8 mph 18.4 mph N/A   Mostly Cloudy
2:55 AM 71.6 °F - 60.8 °F 69% 29.59 in 10.0 mi SSE 10.4 mph - N/A   Scattered Clouds
3:15 AM 69.8 °F - 60.8 °F 73% 29.60 in 10.0 mi SSE 11.5 mph 16.1 mph N/A   Mostly Cloudy
3:35 AM 69.8 °F - 60.8 °F 73% 29.60 in 10.0 mi SSE 11.5 mph - N/A   Mostly Cloudy
3:55 AM 69.8 °F - 60.8 °F 73% 29.60 in 10.0 mi SSE 9.2 mph - N/A   Scattered Clouds
4:15 AM 68.0 °F - 60.8 °F 78% 29.60 in 10.0 mi SSE 10.4 mph - N/A   Partly Cloudy
4:35 AM 68.0 °F - 60.8 °F 78% 29.60 in 10.0 mi SSE 12.7 mph - N/A   Clear
4:55 AM 68.0 °F - 60.8 °F 78% 29.60 in 10.0 mi SSE 13.8 mph - N/A   Clear
5:15 AM 68.0 °F - 60.8 °F 78% 29.60 in 10.0 mi SSE 15.0 mph - N/A   Clear
5:35 AM 68.0 °F - 60.8 °F 78% 29.61 in 10.0 mi South 12.7 mph - N/A   Clear
5:55 AM 68.0 °F - 60.8 °F 78% 29.62 in 10.0 mi South 11.5 mph - N/A   Clear
6:15 AM 68.0 °F - 60.8 °F 78% 29.62 in 10.0 mi South 10.4 mph - N/A   Clear
6:35 AM 68.0 °F - 60.8 °F 78% 29.63 in 10.0 mi South 12.7 mph - N/A   Clear
6:55 AM 68.0 °F - 62.6 °F 83% 29.64 in 10.0 mi South 12.7 mph - N/A   Clear
7:15 AM 68.0 °F - 62.6 °F 83% 29.65 in 10.0 mi South 12.7 mph 19.6 mph N/A   Clear
7:35 AM 69.8 °F - 62.6 °F 78% 29.65 in 10.0 mi South 12.7 mph 20.7 mph N/A   Clear
7:55 AM 71.6 °F - 62.6 °F 73% 29.65 in 10.0 mi South 17.3 mph 23.0 mph N/A   Clear
8:15 AM 71.6 °F - 62.6 °F 73% 29.65 in 10.0 mi South 17.3 mph 24.2 mph N/A   Clear
8:35 AM 73.4 °F - 62.6 °F 69% 29.65 in 10.0 mi South 18.4 mph 23.0 mph N/A   Clear
8:55 AM 75.2 °F - 62.6 °F 65% 29.66 in 10.0 mi South 21.9 mph 28.8 mph N/A   Clear
9:15 AM 75.2 °F - 62.6 °F 65% 29.66 in 10.0 mi South 21.9 mph 28.8 mph N/A   Clear
9:35 AM 77.0 °F - 62.6 °F 61% 29.66 in 10.0 mi South 23.0 mph 29.9 mph N/A   Clear
9:55 AM 78.8 °F - 62.6 °F 57% 29.65 in 10.0 mi South 20.7 mph 28.8 mph N/A   Clear
10:15 AM 80.6 °F 81.5 °F 60.8 °F 51% 29.66 in 10.0 mi South 23.0 mph 29.9 mph N/A   Clear
10:35 AM 82.4 °F 82.9 °F 60.8 °F 48% 29.66 in 10.0 mi South 18.4 mph 29.9 mph N/A   Clear
10:55 AM 82.4 °F 82.9 °F 60.8 °F 48% 29.66 in 10.0 mi South 23.0 mph 28.8 mph N/A   Clear
11:15 AM 82.4 °F 82.9 °F 60.8 °F 48% 29.66 in 10.0 mi South 24.2 mph 31.1 mph N/A   Clear
11:35 AM 84.2 °F 84.4 °F 60.8 °F 45% 29.66 in 10.0 mi SSW 21.9 mph 29.9 mph N/A   Clear
11:55 AM 86.0 °F 85.4 °F 59.0 °F 40% 29.66 in 10.0 mi South 20.7 mph 27.6 mph N/A   Clear
12:15 PM 86.0 °F 85.4 °F 59.0 °F 40% 29.65 in 10.0 mi South 20.7 mph 28.8 mph N/A   Clear
12:35 PM 86.0 °F 86.1 °F 60.8 °F 43% 29.66 in 10.0 mi South 17.3 mph 27.6 mph N/A   Clear
12:55 PM 89.6 °F 89.5 °F 60.8 °F 38% 29.65 in 10.0 mi South 18.4 mph 32.2 mph N/A   Clear
1:15 PM 89.6 °F 90.1 °F 62.6 °F 40% 29.64 in 10.0 mi SSE 18.4 mph 26.5 mph N/A   Clear
1:35 PM 89.6 °F 89.5 °F 60.8 °F 38% 29.64 in 10.0 mi South 18.4 mph 25.3 mph N/A   Clear
1:55 PM 91.4 °F 90.7 °F 59.0 °F 34% 29.63 in 10.0 mi South 17.3 mph 25.3 mph N/A   Clear
2:15 PM 91.4 °F 90.7 °F 59.0 °F 34% 29.63 in 10.0 mi SSE 21.9 mph 29.9 mph N/A   Clear
2:35 PM 93.2 °F 91.9 °F 57.2 °F 30% 29.62 in 10.0 mi South 19.6 mph 32.2 mph N/A   Clear
2:55 PM 93.2 °F 91.9 °F 57.2 °F 30% 29.62 in 10.0 mi South 23.0 mph 34.5 mph N/A   Clear
3:15 PM 93.2 °F 92.6 °F 59.0 °F 32% 29.61 in 10.0 mi SSE 23.0 mph 32.2 mph N/A   Clear
3:55 PM 93.2 °F 94.1 °F 62.6 °F 36% 29.60 in 10.0 mi South 20.7 mph 33.4 mph N/A   Clear
4:15 PM 91.4 °F 91.4 °F 60.8 °F 36% 29.59 in 10.0 mi SSE 23.0 mph 31.1 mph N/A   Clear
4:35 PM 89.6 °F 90.1 °F 62.6 °F 40% 29.60 in 10.0 mi SSE 23.0 mph 29.9 mph N/A   Clear
4:55 PM 87.8 °F 87.1 °F 59.0 °F 38% 29.59 in 10.0 mi South 27.6 mph 33.4 mph N/A   Clear
5:15 PM 89.6 °F 88.1 °F 57.2 °F 33% 29.59 in 10.0 mi South 24.2 mph 29.9 mph N/A   Clear
5:35 PM 86.0 °F 84.9 °F 57.2 °F 37% 29.60 in 10.0 mi SSE 23.0 mph 34.5 mph N/A   Clear
5:55 PM 86.0 °F 84.5 °F 55.4 °F 35% 29.60 in 10.0 mi SSE 20.7 mph 34.5 mph N/A   Clear
6:15 PM 86.0 °F 85.4 °F 59.0 °F 40% 29.61 in 10.0 mi SSE 18.4 mph 24.2 mph N/A   Clear
6:35 PM 84.2 °F 83.8 °F 59.0 °F 42% 29.61 in 10.0 mi SSE 19.6 mph 26.5 mph N/A   Clear
6:55 PM 86.0 °F 86.1 °F 60.8 °F 43% 29.60 in 9.0 mi SSE 20.7 mph 32.2 mph N/A   Clear
7:15 PM 84.2 °F 84.4 °F 60.8 °F 45% 29.61 in 10.0 mi SSE 24.2 mph 33.4 mph N/A   Clear
7:35 PM 80.6 °F 82.3 °F 64.4 °F 58% 29.62 in 10.0 mi SSE 21.9 mph 32.2 mph N/A   Clear
7:55 PM 80.6 °F 81.8 °F 62.6 °F 54% 29.62 in 10.0 mi South 25.3 mph 38.0 mph N/A   Clear
8:15 PM 77.0 °F - 64.4 °F 65% 29.63 in 10.0 mi SSE 23.0 mph 35.7 mph N/A   Clear
8:35 PM 77.0 °F - 64.4 °F 65% 29.63 in 10.0 mi SSE 27.6 mph 36.8 mph N/A   Clear
8:55 PM 75.2 °F - 64.4 °F 69% 29.64 in 10.0 mi South 23.0 mph 31.1 mph N/A   Partly Cloudy
9:15 PM 75.2 °F - 64.4 °F 69% 29.66 in 10.0 mi South 20.7 mph 25.3 mph N/A   Clear
9:35 PM 75.2 °F - 64.4 °F 69% 29.66 in 10.0 mi SSE 16.1 mph 21.9 mph N/A   Scattered Clouds
9:55 PM 75.2 °F - 64.4 °F 69% 29.65 in 10.0 mi South 18.4 mph 27.6 mph N/A   Scattered Clouds
10:15 PM 75.2 °F - 62.6 °F 65% 29.67 in 10.0 mi South 17.3 mph 25.3 mph N/A   Partly Cloudy
10:35 PM 73.4 °F - 62.6 °F 69% 29.74 in 10.0 mi SW 18.4 mph 25.3 mph N/A   Partly Cloudy
10:55 PM 71.6 °F - 64.4 °F 78% 29.74 in 9.0 mi South 12.7 mph - N/A Rain Light Rain
11:15 PM 71.6 °F - 64.4 °F 78% 29.68 in 10.0 mi SE 18.4 mph 26.5 mph N/A   Mostly Cloudy
11:35 PM 71.6 °F - 64.4 °F 78% 29.67 in 10.0 mi SE 20.7 mph 31.1 mph N/A   Clear
11:55 PM 69.8 °F - 62.6 °F 78% 29.68 in 10.0 mi SE 13.8 mph - N/A   Clear